This demonstration page uses our WeatherBlox Daily Observations layout. Learn more.

41.55636, -103.73856

Hourly Observations for December 4, 2015

Temp ( °F °C ) Dew Point ( °F °C ) Humidity (%) Winds ( mph kmh ) Pressure ( in mb ) Visibility ( mi km ) Precip ( " mm )
12:53 am 00:53 Clear 28 -2 19 -7 69 69 E 7 11 30.24 1024 10 16.09344 0 0
1:53 am 01:53 Clear 28 -2 19 -7 69 69 E 7 11 30.24 1024 10 16.09344 0 0
2:53 am 02:53 Clear 27 -3 19 -7 74 74 E 9 15 30.24 1024 10 16.09344 0 0
3:53 am 03:53 Clear 27 -3 18 -8 69 69 E 10 17 30.18 1022 10 16.09344 0 0
4:53 am 04:53 Clear 25 -4 18 -8 74 74 E 10 17 30.21 1023 10 16.09344 0 0
5:53 am 05:53 Clear 23 -5 18 -8 80 80 E 9 15 30.18 1022 10 16.09344 0 0
6:53 am 06:53 Clear 25 -4 19 -7 80 80 ESE 12 19 30.18 1022 10 16.09344 0 0
7:53 am 07:53 Sunny 28 -2 21 -6 74 74 E 9 15 30.15 1021 10 16.09344 0 0
8:53 am 08:53 Sunny 34 1 25 -4 70 70 E 9 15 30.09 1019 10 16.09344 0 0
9:53 am 09:53 Sunny 39 4 25 -4 56 56 E 10 17 30.03 1017 10 16.09344 0 0
10:53 am 10:53 Sunny 45 7 25 -4 46 46 ESE 9 15 29.97 1015 10 16.09344 0 0
11:53 am 11:53 Sunny 48 9 25 -4 40 40 ESE 10 17 29.91 1013 10 16.09344 0 0
12:53 pm 12:53 Sunny 52 11 25 -4 35 35 E 8 13 29.88 1012 10 16.09344 0 0
1:53 pm 13:53 Sunny 55 13 25 -4 31 31 ESE 6 9 29.85 1011 10 16.09344 0 0
2:53 pm 14:53 Sunny 54 12 23 -5 30 30 E 8 13 29.85 1011 10 16.09344 0 0
3:53 pm 15:53 Sunny 45 7 21 -6 39 39 ESE 6 9 29.94 1014 10 16.09344 0 0
4:53 pm 16:53 Clear 39 4 21 -6 48 48 E 9 15 30 1016 10 16.09344 0 0
5:53 pm 17:53 Clear 37 3 21 -6 52 52 ESE 12 19 30.03 1017 10 16.09344 0 0
6:53 pm 18:53 Clear 37 3 27 -3 65 65 ESE 9 15 30.06 1018 10 16.09344 0 0
7:53 pm 19:53 Clear 36 2 27 -3 70 70 E 10 17 30.12 1020 10 16.09344 0 0
8:53 pm 20:53 Clear 34 1 27 -3 75 75 E 9 15 30.12 1020 10 16.09344 0 0
9:53 pm 21:53 Clear 30 -1 25 -4 80 80 WNW 5 7 30.18 1022 10 16.09344 0 0
10:53 pm 22:53 Clear 30 -1 25 -4 80 80 Calm 30.18 1022 10 16.09344 0 0
11:53 pm 23:53 Clear 30 -1 25 -4 80 80 N 5 7 30.18 1022 10 16.09344 0 0

Powered by AerisWeather